223P/Skiff (2019)

Japanese version
Home page
Updated on November 20, 2018

---------------------------------------------------------------------

* Profile

* Pictures

* Orbital Elements

Epoch 2019 Feb. 6.0 TT = JDT 2458520.5
T 2019 Jan. 27.27175 TT                                 MPCW
q   2.4308745            (2000.0)            P               Q
n   0.11624486     Peri.   37.82482     +0.89382113     -0.43625062
a   4.1580229      Node   346.79281     +0.21162471     +0.61439943
e   0.4153773      Incl.   27.01409     +0.39534639     +0.65741823
P   8.48
From 512 observations 2001 July 27-2018 Oct. 10, mean residual 0".5.

* Magnitudes Graph

        m1 = 13.5 + 5 log d + 7.0 log r(t - 150)

---------------------------------------------------------------------

The orbital elements are published on M.P.E.C. 2018-U70.
The magnitudes graphs are made with Comet for Windows.

---------------------------------------------------------------------

Copyright(C) Seiichi Yoshida (comet@aerith.net). All rights reserved.